Weather History for Santa Barbara, CA

Change the Weather History Date:

Saturday, November 2, 2013

  Actual Average Record
Temperature  
Mean Temperature 61 °F 59 °F  
Max Temperature 77 °F 71 °F 97 °F (1992)
Min Temperature 44 °F 48 °F 38 °F (1943)
Degree Days  
Heating Degree Days 4 6  
Month to date heating degree days 7 12  
Since 1 July heating degree days 189 229  
Cooling Degree Days 0 0  
Month to date cooling degree days 0 0  
Year to date cooling degree days 285 186  
Growing Degree Days 10 (Base 50)    
Moisture  
Dew Point 46 °F    
Average Humidity 62    
Maximum Humidity 93    
Minimum Humidity 31    
Precipitation  
Precipitation 0.00 in 0.05 in 0.38 in (2008)
Month to date precipitation 0.00 0.10  
Year to date precipitation 3.81 13.37  
Since 1 July precipitation 0.46 1.32  
Sea Level Pressure  
Sea Level Pressure 29.91 in    
Wind  
Wind Speed 2 mph (SW)    
Max Wind Speed 13 mph    
Max Gust Speed -    
Visibility 9 miles    
Events      
T = Trace of Precipitation, MM = Missing Value Source: NWS Daily Summary

Daily Weather History Graph

Daily Weather History Graph

Search for Another Location

Airport:

Trip Planner

Search our weather history database for the weather conditions in past years. The results will help you decide how hot, cold, wet, or windy it might be!

Date:

Astronomy

Nov. 02, 2013 Rise Set
Actual Time 7:20 AM PDT 6:04 PM PDT
Civil Twilight 6:54 AM PDT 6:30 PM PDT
Nautical Twilight 6:24 AM PDT 7:00 PM PDT
Astronomical Twilight 5:55 AM PDT 7:29 PM PDT
Moon 6:25 AM PDT (11/2) 5:38 PM PDT (11/2)
Length of Visible Light 11h 36m
Length of Day
10h 43m
Waning Crescent, 1% of the Moon is Illuminated
Nov 2
Waning Crescent
Nov 3
New
Nov 9
First Quarter
Nov 17
Full
Nov 25
Last Quarter

Hourly Weather History & Observations

Time (PDT) Temp. Windchill Dew Point Humidity Pressure Visibility Wind Dir Wind Speed Gust Speed Precip Events Conditions
12:53 AM 52.0 °F - 39.9 °F 63% 29.97 in 10.0 mi Calm Calm - N/A   Clear
1:53 AM 52.0 °F - 39.9 °F 63% 29.96 in 10.0 mi Calm Calm - N/A   Clear
2:53 AM 50.0 °F - 39.0 °F 66% 29.96 in 10.0 mi Calm Calm - N/A   Clear
3:53 AM 46.9 °F - 39.0 °F 74% 29.95 in 10.0 mi Calm Calm - N/A   Clear
4:53 AM 48.9 °F - 39.0 °F 69% 29.94 in 10.0 mi Calm Calm - N/A   Clear
5:53 AM 48.9 °F - 37.9 °F 66% 29.94 in 10.0 mi Calm Calm - N/A   Clear
6:53 AM 46.0 °F 44.8 °F 37.0 °F 71% 29.93 in 10.0 mi North 3.5 mph - N/A   Clear
7:53 AM 46.9 °F - 37.9 °F 71% 29.93 in 10.0 mi Calm Calm - N/A   Clear
8:53 AM 57.9 °F - 42.1 °F 56% 29.94 in 10.0 mi Calm Calm - N/A   Clear
9:53 AM 68.0 °F - 44.1 °F 42% 29.95 in 10.0 mi Calm Calm - N/A   Clear
10:53 AM 68.0 °F - 54.0 °F 61% 29.95 in 10.0 mi Variable 5.8 mph - N/A   Clear
11:53 AM 73.9 °F - 54.0 °F 50% 29.93 in 10.0 mi SSE 3.5 mph - N/A   Clear
12:53 PM 75.0 °F - 43.0 °F 32% 29.91 in 10.0 mi SW 3.5 mph - N/A   Clear
1:53 PM 73.9 °F - 44.1 °F 34% 29.89 in 10.0 mi WSW 10.4 mph - N/A   Clear
2:53 PM 75.9 °F - 45.0 °F 33% 29.88 in 10.0 mi Variable 4.6 mph - N/A   Clear
3:53 PM 70.0 °F - 50.0 °F 49% 29.87 in 10.0 mi WSW 5.8 mph - N/A   Clear
4:53 PM 66.0 °F - 55.9 °F 70% 29.87 in 10.0 mi SW 3.5 mph - N/A   Clear
5:53 PM 62.1 °F - 55.0 °F 78% 29.87 in 9.0 mi South 3.5 mph - N/A   Clear
6:53 PM 61.0 °F - 54.0 °F 78% 29.88 in 9.0 mi Calm Calm - N/A   Clear
7:53 PM 57.9 °F - 54.0 °F 87% 29.88 in 7.0 mi Calm Calm - N/A   Clear
8:53 PM 55.9 °F - 52.0 °F 87% 29.87 in 8.0 mi NW 3.5 mph - N/A   Clear
9:53 PM 54.0 °F - 51.1 °F 90% 29.87 in 5.0 mi Calm Calm - N/A   Clear
10:53 PM 53.1 °F - 50.0 °F 89% 29.88 in 7.0 mi Calm Calm - N/A   Clear
11:53 PM 51.1 °F - 48.0 °F 89% 29.87 in 6.0 mi Calm Calm - N/A   Clear